Met observations

Date (UTC) Wind direction m/s kts. Vis. * Weather * Cloud * Temperature (°C) Dew point (°C) Air pressure (Hp)
05-12 16:16 7 14 VIS 10 km BKN TCU 2200ft 3.7 -0.8 982.4
05-12 16:06 9 18 VIS 10 km BKN TCU 2200ft 3.8 -0.4 982.4
05-12 15:56 9 18 VIS 10 km BKN TCU 2200ft 3.8 -0.2 982.5
05-12 15:46 7 13 VIS 10 km BKN TCU 2200ft 4.0 -0.4 982.4
05-12 15:36 10 19 VIS 10 km BKN TCU 2200ft 3.8 0.4 982.4
05-12 15:26 9 18 VIS 10 km BKN TCU 2200ft 3.8 -1.0 982.2
05-12 15:16 10 19 VIS 10 km BKN TCU 2200ft 3.8 -1.2 982.3
05-12 15:06 10 19 VIS 10 km BKN TCU 2200ft 3.6 -1.6 982.3
05-12 14:56 12 24 VIS 10 km BKN TCU 2200ft 3.8 -1.4 982.4
05-12 14:46 8 16 VIS 10 km BKN TCU 2200ft 3.4 0.3 982.6
05-12 14:36 11 21 VIS 10 km BKN TCU 2200ft 3.6 -0.2 982.5
05-12 14:26 7 13 VIS 10 km BKN TCU 2200ft 3.6 -0.5 982.5
05-12 14:16 10 20 VIS 10 km BKN TCU 2200ft 3.8 -1.0 982.6
05-12 14:06 9 18 VIS 10 km BKN TCU 2200ft 3.0 -0.8 982.8
05-12 13:56 13 26 VIS 10 km BKN TCU 2200ft 3.5 -0.8 982.9
05-12 13:46 11 22 VIS 10 km BKN TCU 2200ft 4.0 -1.5 982.8
05-12 13:36 9 17 VIS 10 km BKN TCU 2200ft 3.5 -0.6 983.1
05-12 13:26 7 14 VIS 10 km BKN TCU 2200ft 2.7 0.0 983.2
05-12 13:16 11 21 VIS 10 km BKN TCU 2200ft 2.9 -0.1 983.4
05-12 13:06 12 24 VIS 10 km BKN TCU 2200ft 3.4 -0.1 983.3
05-12 12:56 10 20 VIS 10 km BKN TCU 2200ft 4.2 -1.5 983.2
05-12 12:46 9 18 VIS 10 km BKN TCU 2200ft 4.1 -0.7 983.4
05-12 12:36 13 25 VIS 10 km BKN TCU 2200ft 3.9 -1.0 983.5
05-12 12:26 9 17 VIS 10 km BKN TCU 2200ft 4.0 -1.1 983.6
05-12 12:16 13 25 VIS 10 km BKN TCU 2200ft 3.8 -1.3 983.8
05-12 12:06 14 28 VIS 10 km BKN TCU 2200ft 3.8 -1.0 983.7
05-12 11:56 13 26 VIS 10 km BKN TCU 2200ft 3.6 -1.4 983.8
05-12 11:46 9 18 VIS 10 km BKN TCU 2200ft 2.9 -0.9 983.9
05-12 11:36 15 29 VIS 10 km BKN TCU 2200ft 3.2 0.2 984.1
05-12 11:26 7 13 VIS 10 km BKN TCU 2200ft 3.6 0.1 983.8
05-12 11:16 11 21 VIS 10 km BKN TCU 2200ft 3.1 -0.2 984.2
05-12 11:06 11 22 VIS 10 km BKN TCU 2200ft 1.8 -0.2 984.2
05-12 10:56 13 25 VIS 10 km BKN TCU 2200ft 3.2 0.0 984.0
05-12 10:46 9 18 VIS 10 km BKN TCU 2200ft 3.4 -1.1 983.8
05-12 10:36 12 23 VIS 10 km BKN TCU 2200ft 3.6 -0.1 983.8
05-12 10:26 7 14 VIS 10 km BKN TCU 2200ft 3.0 0.6 983.9
05-12 10:16 10 20 VIS 10 km BKN TCU 2200ft 2.5 -0.3 983.9
05-12 10:06 11 22 VIS 10 km BKN TCU 2200ft 3.2 0.0 983.6
05-12 09:56 8 15 VIS 10 km BKN TCU 2200ft 2.8 0.3 983.8
05-12 09:46 7 14 VIS 10 km BKN TCU 2200ft 2.6 0.3 983.7
05-12 09:36 11 22 VIS 10 km BKN TCU 2200ft 2.3 -0.1 983.9
05-12 09:26 11 21 VIS 10 km BKN TCU 2200ft 2.9 -0.2 983.7
05-12 09:16 9 17 VIS 10 km SCT TCU 2200ft 2.8 0.2 983.6
05-12 09:06 14 27 VIS 10 km SCT TCU 2200ft 3.5 -0.1 983.4
05-12 08:56 13 25 VIS 10 km SCT CB 1800ft 3.5 -1.1 983.3
05-12 08:46 15 29 VIS 10 km SCT CB 1800ft 3.5 -1.7 983.2
05-12 08:36 11 21 VIS 10 km SCT CB 1800ft 3.4 -1.1 983.2
05-12 08:26 10 19 VIS 10 km SCT 1800ft 3.5 -0.2 983.2
05-12 08:16 12 23 VIS 10 km SCT 1800ft 3.2 -0.2 983.2
05-12 08:06 12 24 VIS 10 km SCT 1800ft 3.3 -1.0 982.9
05-12 07:56 12 24 VIS 8 km FBL SHRAGS BKN CB 1400ft 3.1 -0.3 982.9
05-12 07:46 9 17 VIS 8 km FBL SHRAGS BKN CB 1400ft 1.8 -0.1 983.3
05-12 07:36 16 31 VIS 8 km FBL SHRAGS BKN CB 1400ft 1.8 0.2 983.5
05-12 07:26 11 22 VIS 10 km FBL SHRAGS BKN CB 1300ft 3.1 0.5 983.2
05-12 07:16 11 21 VIS 5 km FBL SHRASN BKN CB 1500ft 2.9 0.4 983.3
05-12 07:06 11 22 VIS 5 km FBL SHRASN BKN CB 1500ft 2.6 0.1 983.7
05-12 06:56 11 21 VIS 5 km FBL SHRASN BKN CB 1500ft 1.5 -0.2 983.8
05-12 06:46 9 18 VIS 5 km FBL SHRASN BKN CB 1500ft 2.6 -0.5 983.6
05-12 06:36 12 23 VIS 5 km FBL SHRASN BKN CB 1500ft 2.8 -0.7 983.5
05-12 06:26 14 27 VIS 5 km FBL SHRASN BKN CB 1500ft 3.1 -0.4 983.4
05-12 06:16 13 25 VIS 5 km FBL SHRASN BKN CB 1500ft 2.8 -0.1 983.4
05-12 06:06 11 21 VIS 5 km FBL SHRASN BKN CB 1500ft 2.2 -0.1 983.4
05-12 05:56 13 25 VIS 5 km FBL SHRASN BKN CB 1500ft 1.9 -1.0 983.4
05-12 05:46 14 27 VIS 5 km FBL SHRASN BKN CB 1500ft 2.0 -0.5 983.5
05-12 05:36 13 26 VIS 5 km FBL SHRASN BKN CB 1500ft 2.0 -0.3 983.4
05-12 05:26 15 29 VIS 5 km FBL SHRASN BKN CB 1500ft 2.5 -1.4 983.3
05-12 05:16 13 26 VIS 5 km FBL SHRASN BKN CB 1500ft 3.1 -0.8 983.2
05-12 05:06 11 22 VIS 5 km FBL SHRASN BKN CB 1500ft 3.1 -1.2 983.2
05-12 04:56 13 26 VIS 5 km FBL SHRASN BKN CB 1500ft 2.4 -0.1 983.2
05-12 04:46 11 21 VIS 5 km FBL SHRASN BKN CB 1500ft 1.4 -0.4 983.2
05-12 04:36 16 31 VIS 5 km FBL SHRASN BKN CB 1500ft 1.3 -0.6 983.2
05-12 04:26 13 26 VIS 5 km FBL SHRASN BKN CB 1500ft 2.0 -0.1 983.3
05-12 04:16 11 21 VIS 5 km FBL SHRASN BKN CB 1500ft 1.6 -0.3 983.2
05-12 04:06 14 27 VIS 5 km FBL SHRASN BKN CB 1500ft 1.6 -0.3 983.0
05-12 03:56 13 25 VIS 5 km FBL SHRASN BKN CB 1500ft 1.5 -1.1 983.0
05-12 03:46 13 25 VIS 5 km FBL SHRASN BKN CB 1500ft 2.6 -0.5 982.8
05-12 03:36 13 25 VIS 5 km FBL SHRASN BKN CB 1500ft 2.6 -1.3 982.7
05-12 03:26 14 28 VIS 5 km FBL SHRASN BKN CB 1500ft 2.2 -2.2 983.0
05-12 03:16 12 23 VIS 5 km FBL SHRASN BKN CB 1500ft 2.2 -0.3 983.0
05-12 03:06 11 22 VIS 5 km FBL SHRASN BKN CB 1500ft 2.9 -0.6 982.6
05-12 02:56 12 24 VIS 5 km FBL SHRASN BKN CB 1500ft 2.2 -0.6 982.7
05-12 02:46 8 16 VIS 5 km FBL SHRASN BKN CB 1500ft 2.7 -0.7 982.5
05-12 02:36 11 21 VIS 5 km FBL SHRASN BKN CB 1500ft 2.7 -0.8 982.8
05-12 02:26 8 16 VIS 5 km FBL SHRASN BKN CB 1500ft 2.4 -1.2 983.2
05-12 02:16 15 29 VIS 5 km FBL SHRASN BKN CB 1500ft 2.4 -1.1 983.2
05-12 02:06 11 21 VIS 5 km FBL SHRASN BKN CB 1500ft 3.6 -2.7 982.8
05-12 01:56 12 24 VIS 5 km FBL SHRASN BKN CB 1500ft 3.2 -1.1 983.0
05-12 01:46 11 22 VIS 5 km FBL SHRASN BKN CB 1500ft 2.8 -1.7 983.0
05-12 01:36 12 23 VIS 5 km FBL SHRASN BKN CB 1500ft 3.3 -2.2 983.1
05-12 01:26 11 22 VIS 5 km FBL SHRASN BKN CB 1500ft 3.2 -2.4 983.3
05-12 01:16 15 30 VIS 5 km FBL SHRASN BKN CB 1500ft 3.0 -2.6 983.1
05-12 01:06 15 29 VIS 5 km FBL SHRASN BKN CB 1500ft 2.8 -2.5 983.1
05-12 00:56 12 24 VIS 5 km FBL SHRASN BKN CB 1500ft 2.4 -1.7 983.4
05-12 00:46 13 25 VIS 5 km FBL SHRASN BKN CB 1500ft 2.7 -1.3 983.1
05-12 00:36 11 21 VIS 5 km FBL SHRASN BKN CB 1500ft 2.9 -0.6 983.3
05-12 00:26 10 19 VIS 5 km FBL SHRASN BKN CB 1500ft 2.4 -0.5 983.2
05-12 00:16 12 23 VIS 5 km FBL SHRASN BKN CB 1500ft 2.0 -0.9 983.3
05-12 00:06 12 24 VIS 5 km FBL SHRASN BKN CB 1500ft 2.4 -0.9 982.8
04-12 23:56 11 22 VIS 5 km FBL SHRASN BKN CB 1500ft 3.0 0.0 983.1
04-12 23:46 10 20 VIS 5 km FBL SHRASN BKN CB 1500ft 3.5 -0.1 983.2
04-12 23:36 9 17 VIS 5 km FBL SHRASN BKN CB 1500ft 3.8 -0.3 983.2
04-12 23:26 9 18 VIS 5 km FBL SHRASN BKN CB 1500ft 3.6 0.8 983.0
04-12 23:16 7 14 VIS 5 km FBL SHRASN BKN CB 1500ft 3.2 0.6 983.2
04-12 23:06 10 20 VIS 5 km FBL SHRASN BKN CB 1500ft 2.8 0.7 983.6
04-12 22:56 7 14 VIS 5 km FBL SHRASN BKN CB 1500ft 2.7 0.4 983.6
04-12 22:46 9 18 VIS 5 km FBL SHRASN BKN CB 1500ft 2.3 0.3 983.6
04-12 22:36 10 19 VIS 5 km FBL SHRASN BKN CB 1500ft 2.1 0.4 983.7
04-12 22:26 13 25 VIS 5 km FBL SHRASN BKN CB 1500ft 2.6 0.7 983.5
04-12 22:16 12 23 VIS 5 km FBL SHRASN BKN CB 1500ft 2.3 0.6 983.7
04-12 22:06 8 15 VIS 5 km FBL SHRASN BKN CB 1500ft 3.3 0.1 983.5
04-12 21:56 6 12 VIS 5 km FBL SHRASN BKN CB 1500ft 3.9 0.7 983.5
04-12 21:46 7 13 VIS 5 km FBL SHRASN BKN CB 1500ft 3.7 0.1 983.9
04-12 21:36 6 11 VIS 5 km FBL SHRASN BKN CB 1500ft 3.8 -0.5 983.9
04-12 21:26 9 18 VIS 5 km FBL SHRASN BKN CB 1500ft 3.9 0.4 984.1
04-12 21:16 10 20 VIS 5 km FBL SHRASN BKN CB 1500ft 4.3 0.9 984.0
04-12 21:06 9 18 VIS 5 km FBL SHRASN BKN CB 1500ft 4.3 0.5 984.0
04-12 20:56 4 07 VIS 5 km FBL SHRASN BKN CB 1500ft 4.0 0.5 983.9
04-12 20:46 10 20 VIS 5 km FBL SHRASN BKN CB 1500ft 3.9 0.6 984.2
04-12 20:36 5 09 VIS 5 km FBL SHRASN BKN CB 1500ft 3.8 0.5 984.6
04-12 20:26 8 16 VIS 5 km FBL SHRASN BKN CB 1500ft 3.8 0.6 985.2
04-12 20:16 8 15 VIS 5 km FBL SHRASN BKN CB 1500ft 3.9 1.1 985.3
04-12 20:06 8 15 VIS 5 km FBL SHRASN BKN CB 1500ft 3.6 1.2 985.4
04-12 19:56 5 09 VIS 5 km FBL SHRASN BKN CB 1500ft 3.0 0.8 985.5
04-12 19:46 7 13 VIS 5 km FBL SHRASN BKN CB 1500ft 2.6 0.7 985.5
04-12 19:36 4 07 VIS 5 km FBL SHRASN BKN CB 1500ft 2.9 0.6 985.6
04-12 19:26 8 16 VIS 5 km FBL SHRASN BKN CB 1500ft 2.4 -0.2 985.6
04-12 19:16 13 26 VIS 10 km FBL SHRASN SCT TCU 1200ft BKN 1800ft 2.2 -0.1 985.8
04-12 19:06 8 15 VIS 10 km FBL SHRASN SCT TCU 1200ft BKN 1800ft 4.3 0.4 985.3
04-12 18:56 7 14 VIS 10 km FBL SHRASN SCT TCU 1200ft BKN 1800ft 3.8 0.7 985.5
04-12 18:46 8 16 VIS 10 km FBL SHRASN SCT TCU 1200ft BKN 1800ft 4.4 0.0 985.6
04-12 18:36 11 21 VIS 10 km FBL SHRASN SCT TCU 1200ft BKN 1800ft 4.3 0.5 985.1
04-12 18:26 8 16 VIS 10 km FBL SHRASN SCT TCU 1200ft BKN 1800ft 3.6 0.2 986.1
04-12 18:16 4 07 VIS 10 km FBL SHRASN SCT TCU 1200ft BKN 1800ft 3.0 -0.2 986.2
04-12 18:06 4 07 VIS 10 km FBL SHRASN SCT TCU 1200ft BKN 1800ft 2.9 -0.1 986.0
04-12 17:56 5 09 VIS 10 km FBL SHRASN SCT TCU 1200ft BKN 1800ft 2.9 0.3 985.8
04-12 17:46 12 24 VIS 10 km FBL SHRASN SCT TCU 1200ft BKN 1800ft 3.3 0.1 986.5
04-12 17:36 7 13 VIS 10 km FBL SHRASN SCT TCU 1200ft BKN 1800ft 4.6 -0.2 985.8
04-12 17:26 7 13 VIS 10 km FBL SHRASN SCT TCU 1200ft BKN 1800ft 4.7 -0.3 986.0
04-12 17:16 10 20 VIS 10 km FBL SHRASN SCT TCU 1200ft BKN 1800ft 4.9 0.7 986.0
04-12 17:06 4 08 VIS 10 km FBL SHRASN SCT TCU 1200ft BKN 1800ft 4.4 1.3 986.5
04-12 16:56 9 18 VIS 10 km FBL SHRASN SCT TCU 1200ft BKN 1800ft 3.6 -0.1 986.6
04-12 16:46 7 13 VIS 10 km FBL SHRASN SCT TCU 1200ft BKN 1800ft 4.0 1.0 986.5
04-12 16:36 5 10 VIS 10 km FBL SHRASN SCT TCU 1200ft BKN 1800ft 3.3 0.4 986.9

Met data is updated every half hour and is for information only.
* Visibility, weather and cloud values are updated during the airport’s service hours only.
Flight planning documentation is available on opmet.dmi.dk.
For meteorological abbreviations, click here